Le nostre stazioni meteo in Italia

Pubblicità
Il mio iltempo24.it
Olbia/Costa Smeralda, Italia (16531): Temperatura & dewpoint: 11.02.2019 14:00:00 - 17.02.2019 14:00:00 (CET)Olbia/Costa Smeralda, Italia (16531): velocità del vento: 11.02.2019 14:00:00 - 17.02.2019 14:00:00 (CET)Olbia/Costa Smeralda, Italia (16531): direzione del vento: 11.02.2019 14:00:00 - 17.02.2019 14:00:00 (CET)Olbia/Costa Smeralda, Italia (16531): reduced air pressure: 11.02.2019 14:00:00 - 17.02.2019 14:00:00 (CET)Olbia/Costa Smeralda, Italia (16531): visibility: 11.02.2019 14:00:00 - 17.02.2019 14:00:00 (CET)Olbia/Costa Smeralda, Italia (16531): precipitazioni: 11.02.2019 14:00:00 - 17.02.2019 14:00:00 (CET)
Data & Tempo tt [°C] td [°C] ff [km/h] ff [kn] dd ppp [hPa] vv [km] rr [mm]
17.02.2019 14:00:00 - - - - - - - -
17.02.2019 13:00:00 15,7 6,5 8 4 E 1029,4 10 -
17.02.2019 12:00:00 16,0 6,0 2 1 - - 10 -
17.02.2019 11:00:00 14,0 7,0 4 2 - - 10 -
17.02.2019 10:00:00 11,9 7,4 9 5 SO 1030,7 10 0,0
17.02.2019 09:00:00 8,0 6,0 8 4 OSO - 10 -
17.02.2019 08:00:00 6,0 5,0 4 2 - - 10 -
17.02.2019 07:00:00 5,2 4,3 16 9 SO 1030,5 10 -
17.02.2019 06:00:00 5,0 4,0 5 3 SO - 10 -
17.02.2019 05:00:00 3,0 2,0 5 3 O - 10 -
17.02.2019 04:00:00 1,8 1,7 2 1 - 1029,6 10 0,0
17.02.2019 03:00:00 2,0 1,0 4 2 - - 10 -
17.02.2019 02:00:00 3,0 3,0 4 2 ONO - 10 -
17.02.2019 01:00:00 2,8 2,5 2 1 - 1030,6 10 -
17.02.2019 00:00:00 3,0 3,0 2 1 - - 10 -
16.02.2019 23:00:00 4,0 4,0 5 3 SSE - 10 -
16.02.2019 22:00:00 5,3 4,3 2 1 - 1031,0 10 0,0
16.02.2019 21:00:00 6,0 6,0 2 1 - - 10 -
16.02.2019 20:00:00 8,0 7,0 4 2 - - 10 -
16.02.2019 19:00:00 8,6 7,3 2 1 - 1030,2 10 -
16.02.2019 18:00:00 13,0 9,0 8 4 ENE - 10 -
16.02.2019 17:00:00 15,0 9,0 13 7 ENE - 10 -
16.02.2019 16:00:00 16,3 7,5 9 5 E 1029,5 10 0,0
16.02.2019 15:00:00 16,0 9,0 11 6 ENE - 10 -
16.02.2019 14:00:00 16,0 9,0 11 6 E - 10 -
16.02.2019 13:00:00 16,0 8,0 8 4 NE 1030,7 10 -
16.02.2019 12:00:00 15,0 8,0 9 5 NE - 10 -
16.02.2019 11:00:00 14,0 8,0 4 2 - - 10 -
16.02.2019 10:00:00 12,7 7,9 5 3 SO 1031,0 10 0,0
16.02.2019 09:00:00 9,0 7,0 8 4 OSO - 10 -
16.02.2019 08:00:00 4,0 4,0 2 1 - - 10 -
16.02.2019 07:00:00 3,3 3,0 4 2 - 1030,1 10 -
16.02.2019 06:00:00 3,0 3,0 4 2 - - 10 -
16.02.2019 05:00:00 2,0 2,0 4 2 - - 10 -
16.02.2019 04:00:00 1,4 0,8 4 2 - 1029,1 10 0,0
16.02.2019 03:00:00 2,0 1,0 2 1 - - 10 -
16.02.2019 02:00:00 3,0 1,0 4 2 - - 10 -
16.02.2019 01:00:00 3,4 1,7 4 2 - 1029,4 10 -
16.02.2019 00:00:00 3,0 1,0 5 3 - - 10 -
15.02.2019 23:00:00 5,0 2,0 4 2 - - 10 -
15.02.2019 22:00:00 4,5 2,0 5 3 O 1029,0 10 0,0
15.02.2019 21:00:00 6,0 3,0 5 3 SSE - 10 -
15.02.2019 20:00:00 9,0 3,0 8 4 OSO - 10 -
15.02.2019 19:00:00 10,8 3,6 4 2 - 1028,0 10 -
15.02.2019 18:00:00 15,0 4,0 11 6 O - 10 -
15.02.2019 17:00:00 18,0 2,0 9 5 N - 10 -
15.02.2019 16:00:00 18,4 0,3 9 5 NO 1027,4 10 0,0
15.02.2019 15:00:00 19,0 0,0 13 7 N - 10 -
15.02.2019 14:00:00 18,0 1,0 11 6 N - 10 -
15.02.2019 13:00:00 18,1 2,0 9 5 N 1029,6 10 -
15.02.2019 12:00:00 18,0 0,0 9 5 NNO - 10 -
15.02.2019 11:00:00 15,0 2,0 11 6 OSO - 10 -
15.02.2019 10:00:00 12,4 2,3 16 9 SO 1030,6 10 0,0
15.02.2019 09:00:00 9,0 1,0 15 8 SO - 10 -
15.02.2019 08:00:00 6,0 1,0 16 9 SO - 10 -
15.02.2019 07:00:00 5,4 0,6 15 8 SO 1030,8 10 -
15.02.2019 06:00:00 5,0 1,0 11 6 SO - 10 -
15.02.2019 05:00:00 6,0 1,0 13 7 SO - 10 -
15.02.2019 04:00:00 6,1 1,5 11 6 SO 1031,5 10 0,0
15.02.2019 03:00:00 7,0 2,0 18 10 SO - 10 -
15.02.2019 02:00:00 7,0 3,0 13 7 OSO - 10 -
15.02.2019 01:00:00 7,0 2,2 15 8 SO 1031,9 10 -
15.02.2019 00:00:00 7,0 4,0 13 7 SO - 10 -
14.02.2019 23:00:00 5,0 3,0 15 8 OSO - 10 -
14.02.2019 22:00:00 3,3 1,4 4 2 - 1032,4 10 0,0
14.02.2019 21:00:00 6,0 2,0 5 3 SO - 10 -
14.02.2019 20:00:00 6,0 4,0 4 2 - - 10 -
14.02.2019 19:00:00 8,7 5,3 4 2 - 1032,6 10 -
14.02.2019 18:00:00 14,0 5,0 2 1 - - 10 -
14.02.2019 17:00:00 16,0 7,0 8 4 E - 10 -
14.02.2019 16:00:00 16,6 4,1 8 4 NE 1032,5 10 0,0
14.02.2019 15:00:00 17,0 4,0 8 4 ENE - 10 -
14.02.2019 14:00:00 17,0 4,0 5 3 - - 10 -
14.02.2019 13:00:00 16,2 5,3 9 5 NE 1034,1 10 -
14.02.2019 12:00:00 15,0 7,0 4 2 - - 10 -
14.02.2019 11:00:00 - - - - - - - -
14.02.2019 10:00:00 12,1 7,8 4 2 - 1035,1 10 0,0
14.02.2019 09:00:00 7,0 6,0 2 1 - - 10 -
14.02.2019 08:00:00 1,0 0,0 4 2 - - 10 -
14.02.2019 07:00:00 1,3 0,6 5 3 S 1034,8 10 -
14.02.2019 06:00:00 2,0 1,0 5 3 S - 10 -
14.02.2019 05:00:00 2,0 1,0 4 2 - - 10 -
14.02.2019 04:00:00 1,1 0,3 4 2 - 1034,9 10 0,0
14.02.2019 03:00:00 1,0 1,0 2 1 - - 10 -
14.02.2019 02:00:00 2,0 1,0 4 2 - - 10 -
14.02.2019 01:00:00 2,1 1,1 4 2 S 1035,5 10 -
14.02.2019 00:00:00 3,0 2,0 5 3 SSE - 10 -
13.02.2019 23:00:00 5,0 3,0 8 4 SO - 10 -
13.02.2019 22:00:00 5,5 4,0 15 8 SO 1035,1 10 0,0
13.02.2019 21:00:00 6,0 4,0 5 3 S - 10 -
13.02.2019 20:00:00 7,0 5,0 5 3 SSO - 10 -
13.02.2019 19:00:00 8,8 5,1 8 4 N 1034,5 10 -
13.02.2019 18:00:00 12,0 6,0 8 4 NNE - 10 -
13.02.2019 17:00:00 14,0 5,0 15 8 NE - 10 -
13.02.2019 16:00:00 14,0 5,5 18 10 ENE 1033,3 10 0,0
13.02.2019 15:00:00 15,0 6,0 16 9 ENE - 10 -
13.02.2019 14:00:00 15,0 8,0 16 9 ENE - 10 -
13.02.2019 13:00:00 15,6 6,8 11 6 - 1033,5 10 -
13.02.2019 12:00:00 15,0 6,0 8 4 NNO - 10 -
13.02.2019 11:00:00 13,0 5,0 9 5 SO - 10 -
13.02.2019 10:00:00 11,0 5,2 15 8 SO 1033,5 10 0,0
13.02.2019 09:00:00 8,0 4,0 5 3 SO - 10 -
13.02.2019 08:00:00 3,0 2,0 2 1 - - 10 -
13.02.2019 07:00:00 4,5 2,0 5 3 SO 1031,6 10 -
13.02.2019 06:00:00 4,0 2,0 15 8 OSO - 10 -
13.02.2019 05:00:00 6,0 3,0 13 7 SO - 10 -
13.02.2019 04:00:00 6,4 3,6 18 10 SO 1030,0 10 0,0
13.02.2019 03:00:00 7,0 4,0 21 11 SO - 10 -
13.02.2019 02:00:00 7,0 4,0 21 11 SO - 10 -
13.02.2019 01:00:00 7,6 4,3 16 9 SO 1029,7 10 -
13.02.2019 00:00:00 8,0 5,0 24 13 SO - 10 -
12.02.2019 23:00:00 9,0 5,0 22 12 SO - 10 -
12.02.2019 22:00:00 9,0 5,0 21 11 SO 1028,6 10 0,0
12.02.2019 21:00:00 9,0 5,0 16 9 OSO - 10 -
12.02.2019 20:00:00 10,0 4,0 16 9 O - 10 -
12.02.2019 19:00:00 9,3 2,7 8 4 OSO 1027,2 10 -
12.02.2019 18:00:00 13,0 2,0 15 8 ONO - 10 -
12.02.2019 17:00:00 15,0 0,0 18 10 O - 10 -
12.02.2019 16:00:00 15,2 -0,7 24 13 O 1025,8 10 0,0
12.02.2019 15:00:00 16,0 -42,0 22 12 O - 10 -
12.02.2019 14:00:00 16,0 -44,0 16 9 ONO - 10 -
12.02.2019 13:00:00 15,3 -28,2 15 8 NO 1026,2 10 -
12.02.2019 12:00:00 15,0 -30,0 15 8 N - 10 -
12.02.2019 11:00:00 14,0 -20,0 8 4 N - 10 -
12.02.2019 10:00:00 11,1 -7,6 13 7 SO 1026,1 10 0,0
12.02.2019 09:00:00 7,0 -3,0 13 7 SO - 10 -
12.02.2019 08:00:00 5,0 -2,0 11 6 SO - 10 -
12.02.2019 07:00:00 4,0 -2,6 11 6 OSO 1024,1 10 -
12.02.2019 06:00:00 2,0 -3,0 11 6 SO - 10 -
12.02.2019 05:00:00 2,0 -4,0 4 2 - - 10 -
12.02.2019 04:00:00 2,4 -4,1 4 2 - 1022,9 10 0,0
12.02.2019 03:00:00 4,0 -4,0 2 1 - - 10 -
12.02.2019 02:00:00 3,0 -6,0 8 4 - - 10 -
12.02.2019 01:00:00 5,0 -6,9 4 2 - 1021,6 10 -
12.02.2019 00:00:00 6,0 -6,0 8 4 SSO - 10 -
11.02.2019 23:00:00 8,0 -7,0 13 7 OSO - 10 -
11.02.2019 22:00:00 10,2 -7,4 21 11 O 1019,7 10 0,0
11.02.2019 21:00:00 11,0 -9,0 22 12 ONO - 10 -
11.02.2019 20:00:00 11,0 -10,0 22 12 ONO - 10 -
11.02.2019 19:00:00 10,8 -9,4 26 14 ONO 1017,9 10 -
11.02.2019 18:00:00 11,0 -9,0 28 15 ONO - 10 -
11.02.2019 17:00:00 12,0 -10,0 31 17 O - 10 -
11.02.2019 16:00:00 11,8 -9,4 35 19 ONO 1017,3 10 0,0
11.02.2019 15:00:00 13,0 -9,0 42 23 ONO - 10 -
11.02.2019 14:00:00 13,0 -9,0 46 25 O - 10 -

tt = Temperatura
td = dewpoint
ff = velocità del vento
dd = direzione del vento
ppp = reduced air pressure
vv = visibility
rr = precipitazioni

Stazioni seguenti

WeatherPro
AMSI
MeteoEarth